Location: Huppendorf
(49.9333°N, 11.1500°E)
Time: 20:36:35
(UTC+00:00)

Cosmos 2369 Rocket - Pass Details

Date: 27 February 2020
Orbit: 827 x 854 km, 71.0° (Epoch: 03 April)

Event Time Altitude Azimuth Distance (km) Brightness Sun altitude
Rises 18:55:25 0° 250° (WSW) 3,397 6.3 -20.3°
Reaches altitude 10° 18:58:18 10° 263° (W) 2,470 5.7 -20.8°
Maximum altitude 19:02:56 25° 318° (NW) 1,651 4.3 -21.5°
Drops below altitude 10° 19:07:37 10° 13° (NNE) 2,492 4.6 -22.2°
Sets 19:10:32 0° 27° (NNE) 3,434 5.3 -22.7°
